Effingham, IL

7:09 PM CST on December 10, 2017 (GMT -0600)
Effingham

Weather History for K1H2 - November, 2012

Change the Weather History Date:

Friday, November 9, 2012

  Actual Average (KMTO) Record (KMTO)
Temperature  
Mean Temperature 54 °F -  
Max Temperature 68 °F 54 °F 75 °F (1975)
Min Temperature 39 °F 37 °F 10 °F (1991)
Degree Days  
Heating Degree Days 12    
Growing Degree Days 4 (Base 50)    
Moisture  
Dew Point 42 °F    
Average Humidity 66    
Maximum Humidity 84    
Minimum Humidity 47    
Precipitation  
Precipitation 0.00 in - - ()
Sea Level Pressure  
Sea Level Pressure 30.06 in    
Wind  
Wind Speed 8 mph (SSE)    
Max Wind Speed 14 mph    
Max Gust Speed 21 mph    
Visibility 10 miles    
Events      
Averages and records for this station are not official NWS values.
T = Trace of Precipitation, MM = Missing Value Source: NWS Daily Summary

Daily Weather History Graph

Daily Weather History Graph

Search for Another Location

Airport or City:

Trip Planner

Search our weather history database for the weather conditions in past years. The results will help you decide how hot, cold, wet, or windy it might be!

Date:

Astronomy

Nov. 09, 2012 Rise Set
Actual Time 6:31 AM CST 4:44 PM CST
Civil Twilight 6:02 AM CST 5:12 PM CST
Nautical Twilight 5:30 AM CST 5:44 PM CST
Astronomical Twilight 4:59 AM CST 6:16 PM CST
Moon 1:31 AM CST (11/9) 1:55 PM CST (11/9)
Length of Visible Light 11h 09m
Length of Day
10h 13m
Waning Crescent, 23% of the Moon is Illuminated
Nov 9
Waning Crescent
Nov 13
New
Nov 20
First Quarter
Nov 28
Full
Dec 6
Last Quarter

Hourly Weather History & Observations

Time (CST) Temp. Windchill Dew Point Humidity Pressure Visibility Wind Dir Wind Speed Gust Speed Precip Events Conditions
12:15 AM 40.5 °F 35.8 °F 34.9 °F 80% 30.12 in 10.0 mi SE 6.9 mph - N/A   Clear
12:35 AM 40.8 °F 36.9 °F 35.1 °F 80% 30.12 in 10.0 mi SSE 5.8 mph - N/A   Clear
12:55 AM 40.3 °F 36.3 °F 34.7 °F 80% 30.12 in 10.0 mi SE 5.8 mph - N/A   Clear
1:15 AM 40.3 °F 36.3 °F 34.9 °F 81% 30.13 in 10.0 mi SE 5.8 mph - N/A   Clear
1:35 AM 40.3 °F 36.3 °F 34.9 °F 81% 30.13 in 10.0 mi SSE 5.8 mph - N/A   Clear
1:55 AM 39.9 °F 35.8 °F 34.7 °F 82% 30.13 in 10.0 mi SE 5.8 mph - N/A   Clear
2:15 AM 39.6 °F 34.7 °F 34.9 °F 83% 30.13 in 10.0 mi SE 6.9 mph - N/A   Clear
2:35 AM 39.9 °F 35.1 °F 35.2 °F 83% 30.13 in 10.0 mi SE 6.9 mph - N/A   Clear
2:55 AM 40.3 °F 35.5 °F 35.4 °F 83% 30.13 in 10.0 mi SE 6.9 mph - N/A   Clear
3:15 AM 40.1 °F 36.1 °F 35.2 °F 83% 30.13 in 10.0 mi SE 5.8 mph - N/A   Clear
3:35 AM 39.7 °F 34.9 °F 35.2 °F 84% 30.13 in 10.0 mi SE 6.9 mph - N/A   Clear
3:55 AM 40.6 °F 35.4 °F 35.6 °F 82% 30.13 in 10.0 mi SE 8.1 mph - N/A   Clear
4:15 AM 41.0 °F 36.4 °F 35.6 °F 81% 30.12 in 10.0 mi SE 6.9 mph - N/A   Clear
4:35 AM 40.6 °F 34.8 °F 35.6 °F 82% 30.12 in 10.0 mi SE 9.2 mph - N/A   Clear
4:55 AM 41.0 °F 36.4 °F 35.6 °F 81% 30.13 in 10.0 mi SSE 6.9 mph - N/A   Clear
5:15 AM 41.2 °F 37.3 °F 35.8 °F 81% 30.13 in 10.0 mi SSE 5.8 mph - N/A   Clear
5:35 AM 41.2 °F 36.0 °F 36.0 °F 82% 30.13 in 10.0 mi SE 8.1 mph - N/A   Clear
5:55 AM 41.2 °F 35.5 °F 36.0 °F 82% 30.12 in 10.0 mi SSE 9.2 mph - N/A   Clear
6:15 AM 41.2 °F 36.0 °F 36.0 °F 82% 30.12 in 10.0 mi SSE 8.1 mph - N/A   Clear
6:35 AM 41.0 °F 36.4 °F 35.8 °F 82% 30.12 in 10.0 mi SE 6.9 mph - N/A   Clear
6:55 AM 41.2 °F 36.0 °F 36.1 °F 82% 30.12 in 10.0 mi SSE 8.1 mph - N/A   Clear
7:15 AM 42.3 °F 36.8 °F 36.5 °F 80% 30.12 in 10.0 mi SE 9.2 mph - N/A   Clear
7:35 AM 43.7 °F 39.1 °F 37.0 °F 77% 30.13 in 10.0 mi SSE 8.1 mph - N/A   Clear
7:55 AM 45.0 °F 41.2 °F 37.6 °F 75% 30.13 in 10.0 mi SSE 6.9 mph - N/A   Clear
8:15 AM 46.2 °F 42.2 °F 37.8 °F 72% 30.13 in 10.0 mi SSE 8.1 mph - N/A   Clear
8:35 AM 47.7 °F - 38.3 °F 70% 30.13 in 10.0 mi South 6.9 mph - N/A   Clear
8:55 AM 49.3 °F - 39.6 °F 69% 30.12 in 10.0 mi SSE 10.4 mph - N/A   Clear
9:15 AM 50.7 °F - 39.0 °F 64% 30.12 in 10.0 mi South 9.2 mph - N/A   Clear
9:35 AM 51.8 °F - 39.6 °F 63% 30.12 in 10.0 mi SSE 9.2 mph - N/A   Clear
9:55 AM 53.2 °F - 40.3 °F 61% 30.11 in 10.0 mi SSE 8.1 mph - N/A   Clear
10:15 AM 55.6 °F - 40.6 °F 57% 30.10 in 10.0 mi South 6.9 mph - N/A   Clear
10:35 AM 57.7 °F - 41.7 °F 55% 30.10 in 10.0 mi SSE 9.2 mph - N/A   Clear
10:55 AM 58.6 °F - 41.2 °F 52% 30.08 in 10.0 mi SSE 11.5 mph - N/A   Clear
11:15 AM 59.4 °F - 42.6 °F 54% 30.07 in 10.0 mi SSE 12.7 mph - N/A   Clear
11:35 AM 59.5 °F - 42.6 °F 54% 30.06 in 10.0 mi SSE 11.5 mph 18.4 mph N/A   Clear
11:55 AM 61.3 °F - 43.0 °F 51% 30.05 in 10.0 mi South 12.7 mph 16.1 mph N/A   Clear
12:15 PM 62.2 °F - 43.3 °F 50% 30.04 in 10.0 mi South 10.4 mph 18.4 mph N/A   Clear
12:35 PM 63.5 °F - 44.2 °F 49% 30.03 in 10.0 mi South 11.5 mph - N/A   Clear
12:55 PM 65.1 °F - 45.9 °F 50% 30.02 in 10.0 mi SSE 10.4 mph 17.3 mph N/A   Clear
1:15 PM 66.0 °F - 46.0 °F 48% 30.01 in 10.0 mi SSE 11.5 mph - N/A   Clear
1:35 PM 67.8 °F - 47.3 °F 48% 30.00 in 10.0 mi South 10.4 mph - N/A   Clear
1:55 PM 67.5 °F - 46.8 °F 47% 30.00 in 10.0 mi South 10.4 mph 16.1 mph N/A   Clear
2:15 PM 68.4 °F - 48.7 °F 49% 30.00 in 10.0 mi South 9.2 mph 19.6 mph N/A   Clear
2:35 PM 68.4 °F - 48.7 °F 49% 29.99 in 10.0 mi South 13.8 mph 19.6 mph N/A   Clear
2:55 PM 68.0 °F - 48.6 °F 50% 29.99 in 10.0 mi South 12.7 mph 20.7 mph N/A   Clear
3:15 PM 68.0 °F - 48.9 °F 50% 29.99 in 10.0 mi SSE 8.1 mph 19.6 mph N/A   Clear
3:35 PM 67.1 °F - 48.7 °F 52% 29.98 in 10.0 mi South 11.5 mph 16.1 mph N/A   Clear
3:55 PM 66.2 °F - 48.7 °F 53% 29.98 in 10.0 mi SSE 9.2 mph 16.1 mph N/A   Clear
4:15 PM 65.7 °F - 48.6 °F 54% 29.98 in 10.0 mi SSE 8.1 mph 16.1 mph N/A   Clear
4:35 PM 65.3 °F - 48.4 °F 54% 29.99 in 10.0 mi South 12.7 mph 17.3 mph N/A   Clear
4:55 PM 64.8 °F - 48.2 °F 55% 29.99 in 10.0 mi South 12.7 mph 18.4 mph N/A   Clear
5:15 PM 63.9 °F - 48.4 °F 57% 29.99 in 10.0 mi South 10.4 mph 16.1 mph N/A   Clear
5:35 PM 63.3 °F - 48.4 °F 58% 29.99 in 10.0 mi South 10.4 mph 17.3 mph N/A   Clear
5:55 PM 62.8 °F - 48.6 °F 60% 30.00 in 10.0 mi South 9.2 mph 16.1 mph N/A   Clear
6:15 PM 61.7 °F - 48.7 °F 62% 30.00 in 10.0 mi SSE 8.1 mph - N/A   Clear
6:35 PM 61.2 °F - 48.7 °F 64% 30.00 in 10.0 mi SSE 9.2 mph - N/A   Clear
6:55 PM 61.2 °F - 48.9 °F 64% 29.99 in 10.0 mi South 10.4 mph - N/A   Clear
7:15 PM 60.8 °F - 48.9 °F 65% 30.00 in 10.0 mi South 9.2 mph - N/A   Clear
7:35 PM 60.6 °F - 48.7 °F 65% 30.00 in 10.0 mi SSE 11.5 mph - N/A   Clear
7:55 PM 60.4 °F - 48.4 °F 64% 30.00 in 10.0 mi South 9.2 mph 17.3 mph N/A   Clear
8:15 PM 60.8 °F - 47.7 °F 62% 30.00 in 10.0 mi South 10.4 mph 17.3 mph N/A   Clear
8:35 PM 60.6 °F - 47.5 °F 62% 30.01 in 10.0 mi South 12.7 mph 20.7 mph N/A   Clear
8:55 PM 60.4 °F - 47.3 °F 62% 30.01 in 10.0 mi South 10.4 mph 20.7 mph N/A   Clear
9:15 PM 60.1 °F - 47.3 °F 63% 30.01 in 10.0 mi South 11.5 mph 16.1 mph N/A   Clear
9:35 PM 59.5 °F - 47.1 °F 63% 30.00 in 10.0 mi South 10.4 mph 16.1 mph N/A   Clear
9:55 PM 59.2 °F - 46.9 °F 64% 30.00 in 10.0 mi South 11.5 mph - N/A   Clear
10:15 PM 58.3 °F - 46.8 °F 66% 30.01 in 10.0 mi South 8.1 mph - N/A   Clear
10:35 PM 58.1 °F - 47.1 °F 67% 30.01 in 10.0 mi South 6.9 mph - N/A   Clear
10:55 PM 57.7 °F - 47.3 °F 68% 30.01 in 10.0 mi South 11.5 mph - N/A   Clear
11:15 PM 57.2 °F - 47.3 °F 69% 30.02 in 10.0 mi South 9.2 mph - N/A   Clear
11:35 PM 57.0 °F - 47.5 °F 70% 30.02 in 10.0 mi South 8.1 mph - N/A   Clear
11:55 PM 56.7 °F - 47.7 °F 72% 30.02 in 10.0 mi South 6.9 mph - N/A   Clear